Погода в Барановичи

Погода в Барановичи : погода сейчас, прогноз погоды и архив. Всё, что Вы хотите узнать о погоде в Барановичи!

Хотите узнать прогноз погоды в Барановичи? Тогда Вам сюда: Погода в Барановичи

Поиск расширенной информации на нашем сайте:

Другие новости

Новости СМИ2

Главная страница сайта

Новости сайта

03.07.2017

Напоминаем, что на нашем специализированном сайте Метеоцентр.Азия вы можете получить высокодетализированные автоматические прогнозы погоды по пунктам России, СНГ и мира в авиационном формате (включающие направление и скорость ветра, видимость, явления погоды, количество и форму облачности, нижнюю и верхнюю границу облачности).


Погода в Барановичи - сегодня

Время (UTC), дата Ветер
(°,м/с) 
Видим.   Явления Облачность Т
(°С)
Тd
(°С)
f(%) Тe
(°С)
Pmin
(гПа)
dP
(гПа)
Po
(мм)
O2
(г/м3)
Тmin Tmax R s Состояние
почвы
15 19.06.18 280 (З) 5{11}  10 км    6/6 1000 м 
[Cu med, cong]
+27 +8.5 31 +27  1014.5  -0.9  745  272           
18 19.06.18 290 (З) 3{10}  10 км    9/8 600 м верхняя 
[Sc|Ci fib]
+23.7 +8.8 39 +24  1015.7  0.9  745  275    +28.5       
21 19.06.18 270 (З) 10 км    6/0 верхняя 
[Ci fib]
+19.5 +10.1 55 +22  1017.1  746  279           
00 20.06.18 320 (СЗ) 10 км    8/8 1000 м 
[Sc]
+18 +11.5 66 +22  1018.8  1.5  747  280           
03 20.06.18 220 (ЮЗ) 10 км    4/4 1000 м 
[Sc]
+15.1 +11 76 +19  1019.6  0.6  748  283           
06 20.06.18 270 (З) 6-10{10}  10 км    6/6 1000 м 
[Cu med, cong]
+20.1 +10.5 54 +22  1019.6  0.4  748  279  +14.9         
09 20.06.18 260 (З) 6{12}  10 км    ясно 
+23.5 +6.4 33 +24  1018.7  -0.6  747  276           
12 20.06.18 250 (З) 6-11{13}  10 км    ясно 
+26.1 +1.6 20 +26  1017.4  -1  747  274           
15 20.06.18 270 (З) 5{14}  10 км    ясно 
+26.6 +4.4 24 +27  1016.9  -0.5  746  273           
18 20.06.18 290 (З) 2{11}  10 км    ясно 
+24 +4.9 29 +24  1016.5  -0.6  746  275    +27.6       
21 20.06.18 тихо ()   10 км    ясно 
+16.9 +6.1 49 +17  1017.9  0.8  746  282           
00 21.06.18 тихо ()   10 км    ясно 
+13.4 +8.8 74 +13  1017.8  -0.4  746  285           
03 21.06.18 170 (Ю) 10 км    ясно 
+14.5 +7.3 62 +16  1017.4  -0.3  746  284           
06 21.06.18 160 (Ю) 10 км    8/0 средняя 
[Ac trans]
+22 +8.3 41 +22  1015.5  -1.2  745  276  +12.4         
09 21.06.18 190 (Ю) 4{11}  10 км    8/4 600 м средняя 
[Sc|Ac und]
+26.6 +10.7 37 +29  1013.1  -2  743  271           
12 21.06.18 170 (Ю) 5-10{11}  10 км    6/6 1000 м 
[Cu med, cong]
+27.4 +10.6 35 +30  1010.2  -2.7  741  270           
15 21.06.18 190 (Ю) 6{10}  11000 м    6/6 1000 м 
[Cu med, cong]
+27.5 +10.8 35 +30  1007.8  -2.4  740  269           
18 21.06.18 170 (Ю) 3{11}  12000 м    8/3 600 м средняя, верхняя 
[Sc|Ac lent|Cs]
+26.7 +12.3 41 +31  1005.6  -2.2  738  269    +28.5       
21 21.06.18 160 (Ю) 10 км    5/0 средняя 
[Ac und]
+23.9 +13.9 54 +31  1003.8  -2  737  270           
00 22.06.18 260 (З) 3{11}  10 км  в посл. час ливневой дождь  10/10 600 м кучево-дожд. 
[Cb calv]
+18.7 +16.1 85 +30  1005.6  1.3  737  275      0.8     
03 22.06.18 320 (СЗ) 4{11}  10 км    10/10 600 м кучево-дожд. 
[Cb calv]
+13.6 +10.9 84 +16  1008  1.9  739  282      0.8     
06 22.06.18 270 (З) 10 км  {ливн. осадки}  10/5 600 м средняя 
[Sc|As op]
+13 +8.8 76 +13  1010.5  2.4  741  283  +13.6    0.9     
09 22.06.18 240 (ЮЗ) 10 км    8/6 600 м средняя 
[Sc|As trans]
+15.9 +7.5 57 +16  1011.2  0.9  741  281           
12 22.06.18 290 (З) 10 км    8/6 1000 м средняя 
[Sc|As trans]
+17.9 +4.6 41 +18  1011.8  0.8  742  280           
15 22.06.18 260 (З) 10 км    9/5 1000 м средняя 
[Cu med, cong|As trans]
+18.1 +2.6 35 +18  1012.5  0.7  743  280           
Время (UTC), дата Ветер
(°,м/с) 
Видим.   Явления Облачность Т
(°С)
Тd
(°С)
f(%) Тe
(°С)
Pmin
(гПа)
dP
(гПа)
Po
(мм)
O2
(г/м3)
Тmin Tmax R s Состояние
почвы

Для получения пояснительной информации подведите курсор к названию столбца.

ПОГОДА в Барановичи - архив

Всё, что Вы хотите узнать о погоде в Барановичи - удобно и подробно!

Выберите нужную дату (начиная с 1 января 2015* года) и нажмите кнопку "Найти".
Будут отображены архивные сводки погоды по пункту Барановичи, начиная с указанной даты.


Отображать данные в формате CSV (для использования в таблицах Excel)


Внимание! Наш архив погоды предназначен исключительно для личного некоммерческого использования в познавательных целях. Если Вам необходимы официальные справки о состоянии погоды (для производственных, юридических, коммерческих и т.п. целей), обращайтесь в органы Росгидромета.

*Примечание: данная дата относится к архиву по метеостанциям СССР (Россия, СНГ, Балтия).
Архив по метеостанциям Зарубежной Европы и Азии (кроме Китая) хранится 10 дней, по другим регионам земного шара (Китай, Африка, Америка, Австралия, Океания) - 1 день.

Барановичи - район местоположения метеостанции


Название, широта, долгота, высота метеостанции:
Барановичи 53.1°ш. 26°д. 193 м над ур. моря [Беларусь]

Дополнительная информация

В oтличие oт бoльшинства пoгoдных сайтoв мы публикуем пoдрoбную метеoинфoрмацию в детальнoм прoфессиoнальнoм фoрмате.

Характеристики температуры и влажнoсти вoздуха измеряются на высoте 2 м в тени вдали oт зданий и деревьев.
Скoрoсть ветра измеряется на высoте 10 м (на урoвне рoста челoвека скoрoсть ветра ниже в 1.5-2 раза). Если метеoстанция нахoдится в гoрoде или в лесу, тo скoрoсть ветра занижена на 2-4 м/с пo сравнению с oткрытым местoм. Скoрoсть ветра над акватoриями крупных рек и oзёр, а также на вершинах хoлмoв на 2-5 м/с выше, чем в oбычных услoвиях.
Атмoсфернoе давление в разных тoчках местнoсти мoжет значительнo oтличаться oт давления на метеoстанции, в зависимoсти oт услoвий рельефа (при пoдъёме на 10 м давление пoнижается примернo на 1 мм рт.ст.).